Total_Precipitation_Accumulation
0.00 0.00 0.00 0.00 0.00 0.00 0.00 0.00 0.00 0.00 0.00 0.00 0.00 0.00 0.01 0.01 0.02 0.02 0.04 0.08 0.14 0.32 0.57 0.83 1.15 1.55 2.05 2.64 3.11 3.13 2.51 2.02 1.71 1.43 1.07 0.90 0.87 0.78 0.69 0.66 0.60 0.53 0.47 0.41
0.00 0.00 0.00 0.00 0.00 0.00 0.00 0.00 0.00 0.00 0.00 0.00 0.00 0.00 0.00 0.01 0.01 0.03 0.05 0.09 0.21 0.52 0.81 1.11 1.47 1.62 1.54 1.66 1.75 1.38 1.10 0.92 0.78 0.68 0.51 0.41 0.37 0.34 0.31 0.30 0.30 0.28 0.31 0.32
0.00 0.00 0.00 0.00 0.00 0.00 0.00 0.00 0.00 0.00 0.00 0.00 0.00 0.01 0.01 0.01 0.02 0.04 0.12 0.29 0.70 1.13 1.35 1.52 1.36 1.15 1.07 1.04 0.90 0.61 0.47 0.47 0.41 0.33 0.25 0.22 0.20 0.20 0.20 0.20 0.19 0.19 0.19 0.20
0.00 0.00 0.00 0.00 0.00 0.00 0.00 0.00 0.00 0.00 0.00 0.00 0.01 0.05 0.04 0.03 0.04 0.07 0.21 0.60 1.12 1.39 1.59 1.39 0.75 0.47 0.46 0.47 0.48 0.51 0.52 0.41 0.30 0.26 0.19 0.14 0.13 0.12 0.13 0.14 0.15 0.17 0.15 0.14
0.01 0.00 0.00 0.00 0.00 0.00 0.00 0.00 0.00 0.00 0.00 0.00 0.01 0.06 0.10 0.09 0.13 0.12 0.16 0.35 0.71 0.92 0.82 0.47 0.19 0.13 0.18 0.28 0.47 0.68 0.66 0.45 0.31 0.27 0.23 0.21 0.19 0.18 0.17 0.17 0.18 0.19 0.20 0.19
0.01 0.01 0.00 0.00 0.00 0.00 0.01 0.00 0.01 0.01 0.01 0.05 0.06 0.07 0.17 0.20 0.30 0.22 0.14 0.25 0.50 0.52 0.32 0.16 0.10 0.14 0.21 0.26 0.33 0.42 0.49 0.56 0.51 0.46 0.37 0.33 0.32 0.30 0.27 0.26 0.24 0.25 0.26 0.28
0.03 0.02 0.01 0.01 0.01 0.01 0.01 0.00 0.00 0.01 0.05 0.13 0.10 0.09 0.18 0.24 0.24 0.14 0.08 0.10 0.14 0.15 0.16 0.18 0.19 0.22 0.19 0.16 0.15 0.15 0.19 0.29 0.36 0.40 0.42 0.41 0.40 0.36 0.31 0.28 0.24 0.26 0.25 0.27
0.09 0.05 0.02 0.01 0.03 0.01 0.01 0.01 0.01 0.01 0.01 0.03 0.07 0.20 0.31 0.32 0.16 0.06 0.02 0.02 0.02 0.03 0.04 0.07 0.08 0.07 0.07 0.07 0.07 0.07 0.07 0.08 0.11 0.14 0.18 0.22 0.28 0.27 0.25 0.30 0.23 0.25 0.29 0.29
0.01 0.01 0.01 0.02 0.03 0.01 0.01 0.01 0.01 0.02 0.01 0.04 0.12 0.25 0.24 0.21 0.12 0.05 0.02 0.01 0.01 0.01 0.01 0.01 0.02 0.03 0.04 0.03 0.04 0.04 0.04 0.04 0.04 0.05 0.05 0.06 0.11 0.15 0.16 0.17 0.16 0.17 0.24 0.26
0.00 0.00 0.00 0.01 0.01 0.01 0.01 0.01 0.01 0.02 0.03 0.03 0.08 0.31 0.39 0.25 0.16 0.07 0.03 0.01 0.01 0.01 0.01 0.00 0.01 0.01 0.01 0.02 0.02 0.03 0.04 0.03 0.03 0.02 0.02 0.02 0.04 0.08 0.10 0.11 0.12 0.14 0.18 0.21
0.00 0.00 0.00 0.00 0.01 0.02 0.01 0.01 0.02 0.03 0.03 0.03 0.05 0.18 0.21 0.18 0.12 0.05 0.02 0.00 0.00 0.00 0.00 0.01 0.00 0.00 0.01 0.01 0.01 0.02 0.02 0.02 0.02 0.02 0.01 0.01 0.01 0.02 0.06 0.10 0.14 0.17 0.19 0.19
0.00 0.00 0.00 0.00 0.02 0.02 0.02 0.02 0.02 0.03 0.03 0.03 0.05 0.10 0.12 0.11 0.08 0.04 0.01 0.00 0.00 0.00 0.00 0.00 0.00 0.00 0.01 0.01 0.01 0.01 0.01 0.01 0.01 0.00 0.00 0.00 0.00 0.00 0.01 0.03 0.07 0.13 0.18 0.20
0.00 0.00 0.00 0.00 0.02 0.02 0.03 0.03 0.02 0.03 0.03 0.03 0.07 0.14 0.11 0.04 0.02 0.01 0.00 0.00 0.00 0.00 0.00 0.00 0.00 0.00 0.00 0.00 0.00 0.00 0.00 0.00 0.00 0.00 0.00 0.00 0.00 0.00 0.00 0.01 0.01 0.03 0.08 0.14
0.00 0.00 0.00 0.00 0.00 0.01 0.03 0.04 0.04 0.02 0.02 0.01 0.03 0.09 0.04 0.01 0.00 0.00 0.00 0.00 0.00 0.00 0.00 0.00 0.00 0.00 0.00 0.00 0.00 0.00 0.00 0.00 0.00 0.00 0.00 0.00 0.01 0.01 0.02 0.02 0.02 0.02 0.03 0.07
0.00 0.00 0.00 0.00 0.00 0.01 0.04 0.04 0.03 0.01 0.01 0.02 0.01 0.02 0.01 0.00 0.00 0.00 0.00 0.00 0.00 0.00 0.00 0.00 0.00 0.00 0.00 0.00 0.00 0.00 0.00 0.00 0.00 0.00 0.00 0.01 0.01 0.01 0.02 0.04 0.04 0.04 0.05 0.06
0.00 0.00 0.00 0.00 0.00 0.01 0.03 0.04 0.01 0.00 0.00 0.00 0.00 0.00 0.00 0.00 0.00 0.00 0.00 0.00 0.00 0.00 0.00 0.00 0.00 0.00 0.00 0.00 0.00 0.00 0.00 0.00 0.00 0.01 0.01 0.01 0.02 0.03 0.04 0.04 0.04 0.05 0.06 0.08
0.00 0.00 0.00 0.00 0.00 0.01 0.05 0.02 0.00 0.00 0.00 0.00 0.00 0.00 0.00 0.00 0.00 0.00 0.00 0.00 0.00 0.00 0.00 0.00 0.00 0.00 0.00 0.00 0.00 0.00 0.00 0.00 0.00 0.00 0.01 0.01 0.03 0.04 0.05 0.06 0.06 0.07 0.09 0.11
0.00 0.00 0.00 0.00 0.00 0.04 0.05 0.00 0.00 0.00 0.00 0.00 0.00 0.00 0.00 0.00 0.00 0.00 0.00 0.00 0.00 0.00 0.00 0.00 0.00 0.00 0.00 0.00 0.00 0.00 0.00 0.00 0.00 0.01 0.01 0.02 0.04 0.06 0.07 0.10 0.11 0.12 0.13 0.14
0.00 0.00 0.00 0.00 0.00 0.02 0.01 0.00 0.00 0.00 0.00 0.00 0.00 0.00 0.00 0.00 0.00 0.00 0.00 0.00 0.00 0.00 0.00 0.00 0.00 0.00 0.00 0.00 0.00 0.00 0.00 0.01 0.01 0.02 0.04 0.05 0.08 0.10 0.13 0.15 0.17 0.18 0.19 0.17
0.00 0.00 0.00 0.00 0.00 0.01 0.01 0.00 0.00 0.00 0.00 0.00 0.00 0.00 0.00 0.00 0.00 0.00 0.00 0.00 0.00 0.00 0.00 0.00 0.00 0.00 0.00 0.00 0.01 0.02 0.03 0.04 0.05 0.06 0.07 0.08 0.11 0.16 0.19 0.22 0.25 0.25 0.25 0.21
0.00 0.00 0.00 0.00 0.00 0.00 0.00 0.00 0.00 0.00 0.00 0.00 0.00 0.00 0.00 0.00 0.00 0.00 0.00 0.00 0.00 0.00 0.00 0.00 0.00 0.00 0.00 0.01 0.03 0.06 0.08 0.09 0.09 0.10 0.10 0.11 0.15 0.18 0.20 0.22 0.24 0.25 0.24 0.23
0.00 0.00 0.00 0.00 0.00 0.00 0.00 0.00 0.00 0.00 0.00 0.00 0.00 0.00 0.00 0.00 0.00 0.00 0.00 0.00 0.00 0.00 0.00 0.00 0.00 0.00 0.01 0.02 0.07 0.10 0.11 0.10 0.10 0.11 0.12 0.13 0.14 0.14 0.13 0.18 0.21 0.23 0.25 0.25
0.00 0.00 0.00 0.00 0.00 0.00 0.00 0.00 0.00 0.00 0.00 0.00 0.00 0.00 0.00 0.00 0.00 0.00 0.00 0.00 0.00 0.00 0.00 0.00 0.00 0.01 0.02 0.04 0.08 0.12 0.11 0.11 0.11 0.12 0.13 0.13 0.12 0.14 0.16 0.20 0.22 0.22 0.23 0.22
0.00 0.00 0.00 0.00 0.00 0.00 0.00 0.00 0.00 0.00 0.00 0.00 0.00 0.00 0.00 0.00 0.00 0.00 0.00 0.00 0.00 0.00 0.00 0.01 0.02 0.04 0.05 0.06 0.07 0.09 0.10 0.13 0.16 0.16 0.16 0.15 0.16 0.17 0.19 0.24 0.27 0.29 0.26 0.23
0.00 0.00 0.00 0.00 0.00 0.00 0.00 0.00 0.00 0.00 0.00 0.00 0.00 0.00 0.00 0.00 0.00 0.00 0.00 0.00 0.00 0.00 0.01 0.03 0.06 0.08 0.08 0.07 0.06 0.07 0.11 0.19 0.24 0.24 0.21 0.20 0.21 0.21 0.20 0.23 0.25 0.25 0.25 0.21
0.00 0.00 0.00 0.00 0.00 0.00 0.00 0.00 0.00 0.00 0.00 0.00 0.00 0.00 0.00 0.00 0.00 0.00 0.00 0.00 0.00 0.02 0.04 0.08 0.11 0.12 0.10 0.08 0.07 0.08 0.14 0.23 0.31 0.31 0.25 0.22 0.22 0.23 0.22 0.21 0.20 0.16 0.13 0.12